Regional Weather Roundup
Issued by NWS Jackson, KY

Home | Current Version | Previous Version | Text Only | Print | Product List | Glossary Off
Versions: 1 2 3 4 5 6 7 8 9 10 11 12 13 14 15 16 17 18 19 20 21 22 23 24 25 26 27 28 29 30 31 32 33 34 35 36 37 38 39 40 41 42 43 44 45 46 47 48 49 50

000
ASUS43 KJKL 220410
RWRJKL

EAST KENTUCKY HOURLY WEATHER ROUNDUP
NATIONAL WEATHER SERVICE JACKSON KY
1200 AM EDT SUN OCT 22 2017

NOTE: "FAIR" INDICATES FEW OR NO CLOUDS BELOW 12,000 FEET WITH
NO SIGNIFICANT WEATHER AND/OR OBSTRUCTIONS TO VISIBILITY.

* THESE REPORTS ARE NOT UNDER NWS QUALITY CONTROL AND MAY NOT
  REPORT WEATHER SUCH AS PRECIPITATION AND FOG.

KYZ079-080-083-085-087-088-110-112-115-119-120-220500
...EASTERN KENTUCKY...

CITY           SKY/WX    TMP DP  RH WIND       PRES   REMARKS
JACKSON        CLEAR     64  47  53 SE5       30.24F
LONDON         CLEAR     51  49  92 CALM      30.25S
SOMERSET*      MOCLDY    50  50 100 CALM      30.25F
MONTICELLO*    PTCLDY    47  45  93 VRB6      30.26S
WILLIAMSBURG*  CLEAR     55  52  88 SE7       30.25S
MIDDLESBORO*   PTCLDY    52  51  97 CALM      30.29S
HARLAN APT*    CLOUDY    52  50  93 CALM      30.29S
PIKE CO APT*     N/A     63  49  61 SE6       30.27F
BIG SANDY APT* CLEAR     58  50  74 SE5       30.25F
MOREHEAD APT*  CLEAR     59  50  72 CALM      30.24F
$$

KYZ035-036-041-042-044-050-067-078-099-220500
...CENTRAL KENTUCKY...

CITY           SKY/WX    TMP DP  RH WIND       PRES   REMARKS
MT STERLING*   MOCLDY    54  48  82 CALM      30.24F
FLEMING/MASON* MOCLDY    58  50  76 CALM      30.23F
DANVILLE*      PTCLDY    55  48  76 CALM      30.23F
LEXINGTON      MOCLDY    61  49  64 SE7       30.22S
FRANKFORT      PTCLDY    59  48  67 SE6       30.20S
LOUISVILLE     PTCLDY    61  50  67 SE10      30.17F
LEBANON*         N/A     63  48  59 S8        30.21S
GLASGOW*       MOCLDY    63  50  62 SE6       30.19F
BOWLING GREEN  CLEAR     63  53  70 SE5       30.18F
$$

KYZ091>093-OHZ055-061-077-WVZ005-015-034-035-042-220500
...SOUTHERN OHIO/WEST VIRGINIA...

CITY           SKY/WX    TMP DP  RH WIND       PRES   REMARKS
COVINGTON      PTCLDY    58  48  69 S5        30.19F
COLUMBUS       CLOUDY    64  51  62 SE6       30.22S
DAYTON         PTCLDY    56  50  80 SE9       30.20F
WILMINGTON     PTCLDY    59  51  75 SE6       30.21F
HUNTINGTON     PTCLDY    55  52  89 CALM      30.24S
CHARLESTON     PTCLDY    54  51  90 CALM      30.27S
PINEVILLE*     PTCLDY    49  46  89 MISG      30.36S
BECKLEY        PTCLDY    60  48  64 SE9       30.33F
BLUEFIELD      PTCLDY    60  46  59 VRB3      30.36F
LOGAN CO APT*    N/A     63  48  59 CALM      30.28F
$$

VAZ002-007-008-TNZ017-027-036-066-071-220500
...SOUTHWEST VIRGINIA/EAST TENNESSEE...

CITY           SKY/WX    TMP DP  RH WIND       PRES   REMARKS
WISE*          CLOUDY    59  45  58 S5        30.34S
JONESVILLE*      N/A     52  48  87 CALM      30.31F
ABINGDON*      PTCLDY    59  48  67 E7        30.33F
BRISTOL        PTCLDY    55  49  80 CALM      30.31S
MORRISTOWN*    CLEAR     61  50  67 CALM      30.27S
SEVIERVILLE*   CLEAR     54  52  94 CALM      30.27S
KNOXVILLE      MOCLDY    57  56  96 NE3       30.25S
LAFOLLETTE*    CLEAR     52  52 100 CALM      30.30S
OAK RIDGE      CLEAR     54  54 100 CALM      30.28S
CROSSVILLE     PTCLDY    58  47  66 S3        30.28S
NASHVILLE      MOCLDY    67  52  58 SE10      30.18F
$$

...KEY TO REMARKS...
VSB - VISIBILITY IN MILES
WCI - WIND CHILL INDEX
HX  - HEAT INDEX

$$



USA.gov is the U.S. government's official web portal to all federal, state and local government web resources and services.